TimeCDT,TemperatureF,Dew PointF,Humidity,Sea Level PressureIn,VisibilityMPH,Wind Direction,Wind SpeedMPH,Gust SpeedMPH,PrecipitationIn,Events,Conditions,WindDirDegrees,DateUTC
12:53 AM,64.9,62.1,90,30.07,10.0,SSE,11.5,-,N/A,,Mostly Cloudy,160,2013-08-18 05:53:00
1:53 AM,64.0,61.0,90,30.07,10.0,SSE,10.4,-,N/A,,Mostly Cloudy,160,2013-08-18 06:53:00
2:53 AM,63.0,60.1,90,30.06,10.0,SSE,9.2,-,N/A,,Overcast,160,2013-08-18 07:53:00
3:53 AM,61.0,59.0,93,30.05,10.0,SE,5.8,-,N/A,,Mostly Cloudy,140,2013-08-18 08:53:00
4:53 AM,61.0,60.1,97,30.05,9.0,SSE,4.6,-,N/A,,Overcast,160,2013-08-18 09:53:00
5:13 AM,60.8,59.0,94,30.09,9.0,SSE,5.8,-,N/A,,Overcast,150,2013-08-18 10:13:00
5:45 AM,60.8,59.0,94,30.09,9.0,SSE,5.8,-,N/A,,Scattered Clouds,160,2013-08-18 10:45:00
5:53 AM,60.1,59.0,96,30.04,9.0,SSE,5.8,-,N/A,,Partly Cloudy,150,2013-08-18 10:53:00
6:53 AM,59.0,57.9,96,30.06,5.0,SSE,5.8,-,N/A,,Partly Cloudy,150,2013-08-18 11:53:00
7:53 AM,60.1,59.0,96,30.06,5.0,SSE,5.8,-,N/A,,Partly Cloudy,150,2013-08-18 12:53:00
8:11 AM,60.8,60.8,100,30.11,6.0,South,6.9,-,N/A,,Mostly Cloudy,180,2013-08-18 13:11:00
8:46 AM,62.6,60.8,94,30.11,7.0,South,9.2,-,N/A,,Overcast,180,2013-08-18 13:46:00
8:53 AM,62.1,60.1,93,30.07,7.0,South,8.1,-,N/A,,Overcast,180,2013-08-18 13:53:00
9:53 AM,64.0,61.0,90,30.06,7.0,South,10.4,19.6,N/A,,Overcast,190,2013-08-18 14:53:00
10:53 AM,66.9,63.0,87,30.06,7.0,South,10.4,-,N/A,,Overcast,190,2013-08-18 15:53:00
11:18 AM,69.8,64.4,83,30.10,8.0,SSW,13.8,-,N/A,,Overcast,210,2013-08-18 16:18:00
11:53 AM,71.1,64.0,78,30.04,9.0,South,16.1,25.3,N/A,,Scattered Clouds,190,2013-08-18 16:53:00
12:06 PM,71.6,64.4,78,30.09,10.0,South,16.1,25.3,N/A,,Mostly Cloudy,180,2013-08-18 17:06:00
12:53 PM,73.9,64.9,73,30.03,10.0,SSW,12.7,27.6,N/A,,Mostly Cloudy,200,2013-08-18 17:53:00
1:53 PM,75.0,66.0,73,30.01,10.0,South,17.3,27.6,N/A,,Mostly Cloudy,190,2013-08-18 18:53:00
2:31 PM,75.2,66.2,73,30.06,10.0,South,12.7,27.6,N/A,,Mostly Cloudy,190,2013-08-18 19:31:00
2:53 PM,75.0,66.0,73,30.01,10.0,South,18.4,25.3,N/A,,Mostly Cloudy,180,2013-08-18 19:53:00
3:53 PM,75.0,64.9,71,30.00,10.0,South,16.1,23.0,N/A,,Overcast,170,2013-08-18 20:53:00
4:53 PM,73.9,64.9,73,29.99,10.0,South,15.0,23.0,N/A,,Overcast,170,2013-08-18 21:53:00
5:53 PM,73.9,66.0,76,29.99,10.0,South,10.4,-,N/A,,Overcast,170,2013-08-18 22:53:00
6:53 PM,73.9,66.0,76,29.99,10.0,South,9.2,-,N/A,,Overcast,170,2013-08-18 23:53:00
7:53 PM,71.1,64.9,81,30.01,10.0,SE,6.9,-,N/A,,Scattered Clouds,140,2013-08-19 00:53:00
8:53 PM,66.9,64.9,93,30.01,8.0,SE,6.9,-,N/A,,Clear,140,2013-08-19 01:53:00
9:53 PM,66.9,64.9,93,30.04,9.0,SSE,8.1,-,N/A,,Clear,160,2013-08-19 02:53:00
10:53 PM,66.9,63.0,87,30.04,10.0,South,8.1,-,N/A,,Clear,170,2013-08-19 03:53:00
11:53 PM,66.0,63.0,90,30.00,10.0,South,9.2,-,N/A,,Clear,170,2013-08-19 04:53:00